When you browse on this site, cookies collect data to enhance your experience and personalize the content and advertising you see.
Visit our Privacy Policy to learn more. By continuing to use the site, you agree to this use of cookies and data.
  • In Sweden
  • List of Countries
  • For 7 days
  • Water Temperature
  • Weather Map
  • Weather Widgets
  • user-avatar
    Login

    Hourly Weather Nagano

    Today, 25 August, Sunday

    Time Temperature Precipitation Wind Pressure Humidity
    00:00 +17°C° 0.1 mm 0 mps 692 mmHg 89%
    01:00 +17°C° 0 mm 0 mps 692 mmHg 89%
    02:00 +16°C° 0 mm 0 mps 691 mmHg 88%
    03:00 +18°C° 0 mm 1 mps 691 mmHg 87%
    04:00 +18°C° 0 mm 1 mps 691 mmHg 86%
    05:00 +16°C° 0 mm 1 mps 692 mmHg 86%
    06:00 +16°C° 0 mm 1 mps 692 mmHg 85%
    07:00 +20°C° 0 mm 1 mps 692 mmHg 76%
    08:00 +21°C° 0 mm 0 mps 693 mmHg 66%
    09:00 +24°C° 0 mm 0 mps 693 mmHg 56%
    10:00 +27°C° 0 mm 1 mps 693 mmHg 51%
    11:00 +28°C° 0 mm 1 mps 694 mmHg 46%
    12:00 +29°C° 0 mm 1 mps 694 mmHg 40%
    13:00 +29°C° 0.1 mm 1 mps 693 mmHg 43%
    14:00 +29°C° 0.1 mm 2 mps 693 mmHg 46%
    15:00 +28°C° 0.1 mm 2 mps 693 mmHg 49%
    16:00 +26°C° 0.1 mm 2 mps 693 mmHg 59%
    17:00 +24°C° 0.1 mm 2 mps 693 mmHg 70%
    18:00 +22°C° 0.1 mm 1 mps 693 mmHg 80%
    19:00 +21°C° 0.1 mm 1 mps 693 mmHg 83%
    20:00 +20°C° 0.1 mm 1 mps 693 mmHg 86%
    21:00 +19°C° 0.1 mm 1 mps 693 mmHg 89%
    22:00 +19°C° 0 mm 1 mps 693 mmHg 90%
    23:00 +18°C° 0 mm 1 mps 693 mmHg 90%

    Tomorrow, 26 August, Monday

    Time Temperature Precipitation Wind Pressure Humidity
    00:00 +18°C° 0 mm 1 mps 693 mmHg 90%
    01:00 +18°C° 0 mm 1 mps 693 mmHg 90%
    02:00 +18°C° 0 mm 1 mps 692 mmHg 90%
    03:00 +16°C° 0 mm 1 mps 692 mmHg 90%
    04:00 +15°C° 0 mm 0 mps 693 mmHg 90%
    05:00 +16°C° 0 mm 0 mps 693 mmHg 89%
    06:00 +16°C° 0 mm 0 mps 693 mmHg 89%
    07:00 +18°C° 0 mm 0 mps 694 mmHg 82%
    08:00 +22°C° 0 mm 1 mps 694 mmHg 75%
    09:00 +24°C° 0 mm 1 mps 695 mmHg 68%
    10:00 +25°C° 0 mm 1 mps 695 mmHg 61%
    11:00 +27°C° 0 mm 1 mps 695 mmHg 54%
    12:00 +28°C° 0 mm 1 mps 695 mmHg 47%
    13:00 +28°C° 0.1 mm 2 mps 695 mmHg 48%
    14:00 +27°C° 0.1 mm 2 mps 695 mmHg 50%
    15:00 +27°C° 0.1 mm 2 mps 694 mmHg 51%
    16:00 +25°C° 0.2 mm 2 mps 694 mmHg 61%
    17:00 +24°C° 0.2 mm 2 mps 694 mmHg 71%
    18:00 +22°C° 0.2 mm 1 mps 695 mmHg 81%
    19:00 +21°C° 0.1 mm 1 mps 695 mmHg 84%
    20:00 +20°C° 0.1 mm 1 mps 695 mmHg 86%
    21:00 +17°C° 0.1 mm 0 mps 695 mmHg 89%
    22:00 +17°C° 0 mm 0 mps 695 mmHg 90%
    23:00 +16°C° 0 mm 0 mps 695 mmHg 90%

    Day after tomorrow, 27 August, Tuesday

    Time Temperature Precipitation Wind Pressure Humidity
    00:00 +16°C° 0 mm 0 mps 695 mmHg 91%
    01:00 +16°C° 0 mm 0 mps 695 mmHg 91%
    02:00 +16°C° 0 mm 0 mps 695 mmHg 91%
    03:00 +18°C° 0 mm 1 mps 694 mmHg 90%
    04:00 +18°C° 0 mm 1 mps 695 mmHg 90%
    05:00 +18°C° 0 mm 1 mps 695 mmHg 89%
    06:00 +18°C° 0 mm 1 mps 695 mmHg 88%
    07:00 +20°C° 0 mm 1 mps 696 mmHg 81%
    08:00 +22°C° 0 mm 1 mps 696 mmHg 74%
    09:00 +25°C° 0 mm 1 mps 696 mmHg 66%
    10:00 +26°C° 0 mm 1 mps 696 mmHg 60%
    11:00 +28°C° 0 mm 1 mps 696 mmHg 53%
    12:00 +29°C° 0 mm 1 mps 696 mmHg 47%
    13:00 +29°C° 0.1 mm 1 mps 696 mmHg 49%
    14:00 +29°C° 0.1 mm 2 mps 696 mmHg 50%
    15:00 +28°C° 0.1 mm 2 mps 695 mmHg 52%
    16:00 +27°C° 0.1 mm 2 mps 695 mmHg 60%
    17:00 +25°C° 0.1 mm 2 mps 695 mmHg 69%
    18:00 +23°C° 0.1 mm 2 mps 695 mmHg 77%
    19:00 +21°C° 0.1 mm 2 mps 695 mmHg 79%
    20:00 +22°C° 0.1 mm 1 mps 695 mmHg 80%
    21:00 +21°C° 0.1 mm 1 mps 695 mmHg 82%
    22:00 +21°C° 0.1 mm 1 mps 695 mmHg 84%
    23:00 +21°C° 0.1 mm 1 mps 694 mmHg 86%

    28 August, Wednesday

    Time Temperature Precipitation Wind Pressure Humidity
    00:00 +21°C° 0.1 mm 1 mps 694 mmHg 87%
    01:00 +21°C° 0.4 mm 1 mps 694 mmHg 90%
    02:00 +20°C° 0.4 mm 1 mps 693 mmHg 92%
    03:00 +20°C° 0.4 mm 1 mps 693 mmHg 94%
    04:00 +20°C° 2 mm 1 mps 693 mmHg 94%
    05:00 +19°C° 2 mm 2 mps 692 mmHg 95%
    06:00 +19°C° 2 mm 2 mps 692 mmHg 95%
    07:00 +19°C° 1.7 mm 2 mps 692 mmHg 95%
    08:00 +19°C° 1.7 mm 2 mps 692 mmHg 95%
    09:00 +19°C° 1.7 mm 2 mps 692 mmHg 94%
    10:00 +19°C° 2.4 mm 2 mps 691 mmHg 94%
    11:00 +19°C° 2.4 mm 2 mps 691 mmHg 94%
    12:00 +20°C° 2.4 mm 2 mps 690 mmHg 94%
    13:00 +20°C° 1.3 mm 2 mps 690 mmHg 94%
    14:00 +20°C° 1.3 mm 2 mps 690 mmHg 93%
    15:00 +21°C° 1.3 mm 2 mps 690 mmHg 92%
    16:00 +21°C° 0.7 mm 2 mps 690 mmHg 92%
    17:00 +21°C° 0.7 mm 2 mps 690 mmHg 92%
    18:00 +20°C° 0.7 mm 2 mps 690 mmHg 92%
    19:00 +20°C° 0.2 mm 2 mps 690 mmHg 92%
    20:00 +20°C° 0.2 mm 2 mps 690 mmHg 91%
    21:00 +20°C° 0.2 mm 2 mps 690 mmHg 91%
    22:00 +20°C° 0.1 mm 2 mps 690 mmHg 91%
    23:00 +20°C° 0.1 mm 2 mps 689 mmHg 90%

    29 August, Thursday

    Time Temperature Precipitation Wind Pressure Humidity
    00:00 +21°C° 0.1 mm 1 mps 689 mmHg 90%
    01:00 +21°C° 0.4 mm 1 mps 689 mmHg 91%
    02:00 +20°C° 0.4 mm 2 mps 689 mmHg 92%
    03:00 +20°C° 0.4 mm 2 mps 689 mmHg 93%
    04:00 +22°C° 0.9 mm 1 mps 689 mmHg 93%
    05:00 +22°C° 0.9 mm 1 mps 689 mmHg 93%
    06:00 +22°C° 0.9 mm 1 mps 689 mmHg 93%
    07:00 +21°C° 0.9 mm 2 mps 689 mmHg 90%
    08:00 +23°C° 0.9 mm 2 mps 689 mmHg 88%
    09:00 +24°C° 0.9 mm 2 mps 690 mmHg 85%
    10:00 +23°C° 1.8 mm 2 mps 690 mmHg 86%
    11:00 +23°C° 1.8 mm 2 mps 690 mmHg 87%
    12:00 +23°C° 1.8 mm 2 mps 690 mmHg 88%
    13:00 +23°C° 2.2 mm 2 mps 690 mmHg 91%
    14:00 +22°C° 2.2 mm 1 mps 689 mmHg 93%
    15:00 +22°C° 2.2 mm 1 mps 689 mmHg 96%
    16:00 +22°C° 0.5 mm 1 mps 690 mmHg 95%
    17:00 +22°C° 0.5 mm 1 mps 690 mmHg 94%
    18:00 +22°C° 0.5 mm 1 mps 690 mmHg 93%
    19:00 +22°C° 0 mm 1 mps 690 mmHg 93%
    20:00 +21°C° 0 mm 1 mps 690 mmHg 93%
    21:00 +21°C° 0 mm 1 mps 691 mmHg 93%
    22:00 +21°C° 0 mm 1 mps 691 mmHg 93%
    23:00 +20°C° 0 mm 1 mps 691 mmHg 93%

    30 August, Friday

    Time Temperature Precipitation Wind Pressure Humidity
    00:00 +20°C° 0 mm 1 mps 691 mmHg 93%
    01:00 +20°C° 0 mm 1 mps 691 mmHg 93%
    02:00 +20°C° 0 mm 1 mps 691 mmHg 93%
    03:00 +19°C° 0 mm 1 mps 691 mmHg 93%
    04:00 +20°C° 0 mm 1 mps 691 mmHg 92%
    05:00 +20°C° 0 mm 1 mps 691 mmHg 92%
    06:00 +20°C° 0 mm 1 mps 692 mmHg 92%
    07:00 +22°C° 0 mm 1 mps 692 mmHg 84%
    08:00 +25°C° 0 mm 1 mps 693 mmHg 76%
    09:00 +27°C° 0 mm 1 mps 693 mmHg 68%
    10:00 +28°C° 0.1 mm 1 mps 693 mmHg 63%
    11:00 +29°C° 0.1 mm 2 mps 693 mmHg 58%
    12:00 +30°C° 0.1 mm 2 mps 694 mmHg 53%
    13:00 +28°C° 0.6 mm 2 mps 693 mmHg 63%
    14:00 +26°C° 0.6 mm 2 mps 693 mmHg 74%
    15:00 +24°C° 0.6 mm 2 mps 692 mmHg 84%
    16:00 +23°C° 1.6 mm 2 mps 693 mmHg 87%
    17:00 +22°C° 1.6 mm 1 mps 693 mmHg 90%
    18:00 +21°C° 1.6 mm 1 mps 693 mmHg 93%
    19:00 +21°C° 0.2 mm 1 mps 693 mmHg 92%
    20:00 +21°C° 0.2 mm 1 mps 693 mmHg 92%
    21:00 +21°C° 0.2 mm 1 mps 694 mmHg 91%
    22:00 +21°C° 0 mm 1 mps 694 mmHg 91%
    23:00 +20°C° 0 mm 1 mps 693 mmHg 91%
    Show more